Flag for Maldives Weather past 2 weeks in Male, Maldives

Now
84 °F

Passing clouds.


Feels Like: 96 °F
Forecast: 85 / 90 °F
Wind: 7 mph from West

Location: Male Airport


UV Index: 7 (High)

Visibility: N/A


Pressure: 29.86 "Hg

Humidity: 84%

Dew point: 79 °F

Location of MaleLocation

Historic Weather in Male

°F

Male temperature yesterday

Maximum temperature yesterday: 88 °F (at 12:00 PM)
Minimum temperature yesterday: 82 °F (at 12:00 AM)
Average temperature yesterday: 85 °F

Past Weeks' High & Low Weather Summary

 TemperatureHumidityPressure
High90 °F (Apr 14, 11:00 AM)89% (Apr 12, 5:00 AM)29.98 "Hg (Apr 12, 5:00 AM)
Low81 °F (Apr 23, 7:00 AM)63% (Apr 18, 2:00 PM)29.74 "Hg (Apr 20, 4:00 PM)
Average86 °F77%29.85 "Hg
* Reported Apr 9 11:00 PM — Apr 24 11:00 PM, Male, Weather by CustomWeather, © 2014

Note: Actual official high and low records may vary slightly from our data, if they occured in-between our weather recording intervals... More about our weather records

Advertising

Historic Weather Conditions — Data for Previous 24 hours

 ConditionsComfort  
Time TempWeatherWind HumidityBarometerVisibility
11:00 PM
Apr 24
84 °FPassing clouds.5 mph79%29.89 "HgN/A
10:00 PM84 °FPassing clouds.9 mph84%29.89 "HgN/A
9:00 PM84 °FPassing clouds.10 mph84%29.86 "HgN/A
8:00 PM84 °FPassing clouds.9 mph84%29.86 "HgN/A
7:00 PM86 °FPassing clouds.8 mph75%29.80 "HgN/A
6:00 PM86 °FScattered clouds.6 mph75%29.80 "HgN/A
5:00 PM88 °FScattered clouds.8 mph70%29.77 "HgN/A
4:00 PM88 °FPassing clouds.6 mph79%29.77 "HgN/A
3:00 PM88 °FPartly sunny.7 mph70%29.77 "HgN/A
2:00 PM88 °FPartly sunny.7 mph70%29.80 "HgN/A
1:00 PM88 °FPartly sunny.8 mph70%29.83 "HgN/A
12:00 PM88 °FPartly sunny.9 mph70%29.86 "HgN/A
11:00 AM86 °FBroken clouds.6 mph75%29.89 "HgN/A
10:00 AM84 °FSprinkles. Partly sunny.13 mph79%29.89 "HgN/A
9:00 AM86 °FPartly sunny.12 mph75%29.89 "HgN/A
5:00 AM82 °FSprinkles. Overcast.10 mph84%29.80 "Hg6 mi
3:00 AM84 °FPassing clouds.13 mph79%29.80 "HgN/A
2:00 AM84 °FPartly cloudy.12 mph84%29.80 "HgN/A
1:00 AM82 °FLight rain. Mostly cloudy.9 mph89%29.83 "Hg6 mi
12:00 AM82 °FLight rain. Mostly cloudy.7 mph84%29.86 "Hg6 mi
Weather by CustomWeather, © 2014

See weather overview